Home   Weather   Leiden   Past weeks

Flag for Netherlands Past Weather in Leiden, Netherlands — Yesterday and Last 2 Weeks

Now
45 °F

Clear.


Feels Like: 39 °F
Forecast: 42 / 48 °F
Wind: 10 mph from South

Location: Rotterdam Zestienhoven Airport

Current Time: Apr 24, 2017 at 4:12:21 am

Latest Report: Apr 24, 2017 at 2:55 am


Visibility: N/A

Pressure: 30.12 "Hg

Humidity: 76%

Dew Point: 37 °F

Location of LeidenLocation

Past Weather in Leiden — Graph

°F

Leiden Temperature Yesterday

Maximum temperature yesterday: 52 °F (at 12:55 pm)
Minimum temperature yesterday: 37 °F (at 6:55 am)
Average temperature yesterday: 45 °F

High & Low Weather Summary for the Past Weeks

 TemperatureHumidityPressure
High55 °F (Apr 21, 10:55 am)100% (Apr 20, 12:55 am)30.63 "Hg (Apr 20, 12:55 am)
Low28 °F (Apr 20, 4:55 am)43% (Apr 20, 12:55 pm)30.15 "Hg (Apr 24, 1:55 am)
Average46 °F73%30.43 "Hg
* Reported Apr 19 8:55 am — Apr 24 2:25 am, Leiden, Weather by CustomWeather, © 2017

Note: Actual official high and low records may vary slightly from our data, if they occured in-between our weather recording intervals... More about our weather records

Advertising

Leiden Weather History for the Previous 24 Hours

Scroll right to see more
 ConditionsComfort  
Time TempWeatherWind HumidityBarometerVisibility
2:25 am
Mon, Apr 24
45 °FClear.9 mph76%30.15 "HgN/A
1:55 am45 °FClear.10 mph81%30.15 "HgN/A
1:25 am45 °FClear.10 mph81%30.18 "HgN/A
12:55 am43 °FClear.7 mph81%30.18 "HgN/A
12:25 am39 °FChilly.8 mph87%30.18 "HgN/A
11:55 pm
Sun, Apr 23
39 °FChilly.6 mph87%30.21 "HgN/A
11:25 pm39 °FClear.5 mph87%30.21 "HgN/A
10:55 pm41 °FClear.6 mph81%30.21 "HgN/A
10:25 pm41 °FQuite cool.3 mph87%30.24 "HgN/A
9:55 pm41 °FQuite cool.2 mph87%30.24 "HgN/A
8:55 pm45 °FQuite cool.1 mph76%30.24 "HgN/A
8:25 pm48 °FCool.2 mph66%30.24 "HgN/A
7:55 pm48 °FCool.3 mph66%30.24 "HgN/A
7:25 pm50 °FCool.5 mph62%30.27 "HgN/A
6:55 pm50 °FPartly sunny.7 mph62%30.27 "HgN/A
6:25 pm52 °FBroken clouds.7 mph58%30.27 "HgN/A
5:55 pm52 °FScattered clouds.8 mph62%30.27 "HgN/A
5:25 pm50 °FPassing clouds.7 mph62%30.27 "HgN/A
4:55 pm50 °FBroken clouds.8 mph62%30.27 "HgN/A
4:25 pm50 °FPartly sunny.8 mph67%30.30 "HgN/A
3:55 pm50 °FScattered clouds.7 mph67%30.30 "HgN/A
2:55 pm48 °FDrizzle. More clouds than sun.5 mph71%30.30 "HgN/A
2:25 pm46 °FMore clouds than sun.9 mph76%30.33 "HgN/A
1:55 pm50 °FBroken clouds.9 mph62%30.33 "HgN/A
1:25 pm50 °FPartly sunny.10 mph67%30.33 "HgN/A
12:55 pm52 °FScattered clouds.8 mph62%30.33 "HgN/A
12:25 pm50 °FBroken clouds.9 mph62%30.33 "HgN/A
11:55 am50 °FBroken clouds.7 mph71%30.33 "HgN/A
11:25 am46 °FScattered clouds.8 mph82%30.33 "HgN/A
10:55 am48 °FMostly cloudy.10 mph66%30.33 "HgN/A
10:25 am48 °FBroken clouds.9 mph66%30.33 "HgN/A
9:55 am48 °FBroken clouds.9 mph66%30.33 "HgN/A
8:55 am46 °FPartly sunny.5 mph66%30.30 "HgN/A
8:25 am45 °FQuite cool.3 mph76%30.30 "HgN/A
7:55 am41 °FQuite cool.3 mph87%30.30 "HgN/A
7:25 am37 °FClear.3 mph93%30.30 "HgN/A
6:55 am37 °FChilly.3 mph87%30.30 "HgN/A
6:25 am39 °FChilly.3 mph87%30.30 "HgN/A
5:55 am41 °FPassing clouds.3 mph87%30.30 "HgN/A
5:25 am41 °FDrizzle. Mostly cloudy.6 mph81%30.30 "HgN/A
4:55 am39 °FClear.6 mph87%30.30 "HgN/A
4:25 am39 °FPartly cloudy.5 mph87%30.30 "HgN/A
Weather by CustomWeather, © 2017

See weather overviewHow to use our weather pages